Thunder radar more information blitzortung!


Rain radar more information rain snow radar


Visit our other weather sites:

Template documentation
and downloads

And another site



There are no active watches, warnings or advisories

Select another period ( hide this area )

Units Period Custom range Directly to
Metric English Both
Daily Weekly Monthly Yearly
use both date-selectors for a custom range
previous Day
With this date

WeatherUnderground graphs for this period ( click here )


Daily Summary for Wednesday Dec 11 2019
Time Temp. ( °C ) Dew pt. ( °C ) Wind ( km/h ) from Gust ( km/h ) Pressure ( hPa ) Humid.( % ) Rainrate ( cm )
High0,3 -0,9 27,8 NW ( 396/609 ) 32,2 1029,0 93 -
Average-1,2 -2,9 12,2 NW #56/80 8,0 1026,0 88 -
Low-2,6 -6,6 1,6   1,3 1023,9 72 -
Daily Tabular details for Wednesday Dec 11 2019
Time Temp. ( °C ) Dew pt. ( °C ) Wind ( km/h ) from Gust ( km/h ) Pressure ( hPa ) Humid.( % ) Rainrate ( cm )
00:00 0,3 -0,9 9,7 NW 25,7 1024,3 92 -
00:05 0,2 -1,0 14,8 NW 3,9 1024,3 92 -
00:10 0,1 -1,1 9,7 NNW 4,0 1024,3 92 -
00:15 0,0 -1,2 18,5 NW 2,1 1024,6 92 -
00:20 -0,1 -1,3 14,8 NW 6,0 1024,6 92 -
00:25 -0,3 -1,5 18,5 NNW 6,1 1024,3 92 -
00:30 -0,4 -1,4 8,0 NW 32,2 1024,6 93 -
00:35 -0,5 -1,5 16,1 NNW 4,8 1024,6 93 -
00:40 -0,5 -1,5 20,9 NW 11,3 1024,6 93 -
00:45 -0,6 -1,6 24,1 NW 6,9 1024,3 93 -
00:50 -0,6 -1,6 24,1 NW 5,0 1024,6 93 -
00:55 -0,6 -1,6 12,9 NW 5,6 1024,6 93 -
01:00 -0,7 -1,7 9,7 NNW 25,7 1023,9 93 -
01:05 -0,7 -1,7 18,5 NNW 4,0 1024,3 93 -
01:10 -0,6 -1,6 9,3 NNW 5,3 1024,3 93 -
01:15 -0,6 -1,7 18,5 NW 4,7 1024,6 92 -
01:20 -0,6 -1,7 13,0 NW 5,5 1024,3 92 -
01:25 -0,6 -1,7 8,0 NW 1,9 1024,3 92 -
01:30 -0,6 -1,7 9,7 NNW 27,4 1024,6 92 -
01:35 -0,6 -1,7 5,6 North 1,3 1024,9 92 -
01:40 -0,7 -1,8 5,6 NW 2,4 1024,6 92 -
01:45 -0,8 -1,9 24,1 NNW 8,4 1024,6 92 -
01:50 -0,8 -1,9 16,7 NW 5,3 1024,9 92 -
01:55 -0,8 -1,9 9,3 NW 3,1 1024,9 92 -
02:00 -0,8 -1,9 1,6 NW 24,1 1024,9 92 -
02:05 -0,9 -2,0 14,8 NW 4,5 1024,9 92 -
02:10 -0,9 -2,1 20,4 NNW 7,9 1024,9 92 -
02:15 -1,0 -2,1 16,7 NW 5,3 1024,9 92 -
02:20 -1,0 -2,0 18,5 NNW 5,8 1025,3 93 -
02:25 -0,9 -1,9 11,1 NW 4,2 1025,3 93 -
02:30 -0,9 -1,9 3,2 NW 22,5 1025,3 93 -
02:35 -0,9 -2,1 18,5 NNW 3,2 1024,9 92 -
02:40 -0,9 -2,0 13,0 NNW 3,4 1025,3 92 -
02:45 -0,8 -1,9 11,1 NNW 4,3 1025,6 92 -
02:50 -0,7 -1,8 6,4 NW 3,7 1025,6 92 -
02:55 -0,8 -1,9 14,8 NW 3,7 1025,6 92 -
03:00 -0,8 -1,9 4,8 NW 22,5 1025,3 92 -
03:05 -0,9 -2,0 12,9 NW 4,0 1026,0 92 -
03:10 -0,9 -2,1 20,9 NW 5,1 1026,3 92 -
03:15 -1,1 -2,3 16,1 North 5,5 1025,6 91 -
03:20 -1,1 -2,3 18,5 NNW 5,0 1026,0 91 -
03:25 -1,1 -2,3 5,6 NW 2,7 1026,6 91 -
03:30 -1,1 -2,3 3,2 NW 29,0 1026,6 91 -
03:35 -1,1 -2,3 20,9 NW 9,3 1026,3 91 -
03:40 -1,1 -2,6 14,8 NNW 7,4 1025,6 90 -
03:45 -1,2 -2,7 8,0 NNW 3,7 1026,3 89 -
03:50 -1,1 -2,5 11,3 NNW 2,9 1026,6 90 -
03:55 -1,1 -2,6 14,8 NW 6,1 1026,6 89 -
04:00 -1,1 -3,3 3,2 NW 22,5 1026,6 85 -
04:05 -1,1 -3,3 27,8 NW 8,7 1026,6 85 -
04:10 -1,1 -3,3 11,1 NW 5,0 1027,0 85 -
04:15 -1,1 -3,2 16,1 WNW 3,5 1027,3 86 -
04:20 -1,2 -3,1 13,0 WNW 7,7 1027,3 87 -
04:25 -1,2 -3,1 6,4 NW 2,6 1027,0 87 -
04:30 -1,3 -3,2 4,8 NW 27,4 1027,0 87 -
04:35 -1,5 -3,4 13,0 NW 5,6 1027,7 87 -
04:40 -1,6 -3,5 9,7 NW 3,7 1027,3 87 -
04:45 -1,7 -3,6 17,7 NW 3,9 1027,7 87 -
04:50 -1,8 -3,6 11,3 NW 5,0 1027,7 88 -
04:55 -1,9 -3,8 11,1 NW 3,4 1027,7 87 -
05:00 -2,0 -3,7 4,8 NW 17,7 1027,7 88 -
05:05 -2,1 -3,9 11,3 NW 2,6 1027,7 87 -
05:10 -2,1 -4,1 13,0 NW 6,8 1028,0 86 -
05:15 -2,1 -4,3 7,4 NW 4,7 1028,0 85 -
05:20 -2,1 -4,3 7,4 NW 2,3 1028,3 85 -
05:25 -2,2 -4,3 11,3 NW 5,6 1028,3 85 -
05:30 -2,2 -4,5 3,2 NW 20,9 1028,7 84 -
05:35 -2,2 -5,0 8,0 NW 2,7 1028,7 81 -
05:40 -2,1 -5,6 5,6 NW 3,4 1028,7 77 -
05:45 -2,1 -6,3 18,5 NW 9,0 1028,7 73 -
05:50 -2,1 -6,3 12,9 NW 3,4 1028,7 73 -
05:55 -2,2 -6,6 7,4 NW 3,1 1028,7 72 -
06:00 -2,2 -6,1 1,6 NW 20,9 1028,7 75 -
06:05 -2,4 -5,7 14,5 NW 2,9 1028,7 78 -
06:10 -2,5 -5,8 18,5 NNW 6,8 1028,7 78 -
06:15 -2,5 -5,8 13,0 NNW 4,3 1029,0 78 -
06:20 -2,6 -5,9 9,3 NNW 2,1 1028,7 78 -
06:25 -2,6 -6,1 3,7 NW 1,6 1029,0 77 -
06:30 -2,5 -6,5 3,2 NW 19,3 1029,0 74 -
06:35 -2,6 -6,4 16,7 NW 6,1 1029,0 75 -
Daily Summary for Wednesday Dec 11 2019
Time Temp. ( °C ) Dew pt. ( °C ) Wind ( km/h ) from Gust ( km/h ) Pressure ( hPa ) Humid.( % ) Rainrate ( cm )
High0,3 -0,9 27,8 NW ( 396/609 ) 32,2 1029,0 93 -
Average-1,2 -2,9 12,2 NW #56/80 8,0 1026,0 88 -
Low-2,6 -6,6 1,6   1,3 1023,9 72 -
Daily Tabular details for Wednesday Dec 11 2019
Time Temp. ( °C ) Dew pt. ( °C ) Wind ( km/h ) from Gust ( km/h ) Pressure ( hPa ) Humid.( % ) Rainrate ( cm )
00:00 0,3 -0,9 9,7 NW 25,7 1024,3 92 -
00:05 0,2 -1,0 14,8 NW 3,9 1024,3 92 -
00:10 0,1 -1,1 9,7 NNW 4,0 1024,3 92 -
00:15 0,0 -1,2 18,5 NW 2,1 1024,6 92 -
00:20 -0,1 -1,3 14,8 NW 6,0 1024,6 92 -
00:25 -0,3 -1,5 18,5 NNW 6,1 1024,3 92 -
00:30 -0,4 -1,4 8,0 NW 32,2 1024,6 93 -
00:35 -0,5 -1,5 16,1 NNW 4,8 1024,6 93 -
00:40 -0,5 -1,5 20,9 NW 11,3 1024,6 93 -
00:45 -0,6 -1,6 24,1 NW 6,9 1024,3 93 -
00:50 -0,6 -1,6 24,1 NW 5,0 1024,6 93 -
00:55 -0,6 -1,6 12,9 NW 5,6 1024,6 93 -
01:00 -0,7 -1,7 9,7 NNW 25,7 1023,9 93 -
01:05 -0,7 -1,7 18,5 NNW 4,0 1024,3 93 -
01:10 -0,6 -1,6 9,3 NNW 5,3 1024,3 93 -
01:15 -0,6 -1,7 18,5 NW 4,7 1024,6 92 -
01:20 -0,6 -1,7 13,0 NW 5,5 1024,3 92 -
01:25 -0,6 -1,7 8,0 NW 1,9 1024,3 92 -
01:30 -0,6 -1,7 9,7 NNW 27,4 1024,6 92 -
01:35 -0,6 -1,7 5,6 North 1,3 1024,9 92 -
01:40 -0,7 -1,8 5,6 NW 2,4 1024,6 92 -
01:45 -0,8 -1,9 24,1 NNW 8,4 1024,6 92 -
01:50 -0,8 -1,9 16,7 NW 5,3 1024,9 92 -
01:55 -0,8 -1,9 9,3 NW 3,1 1024,9 92 -
02:00 -0,8 -1,9 1,6 NW 24,1 1024,9 92 -
02:05 -0,9 -2,0 14,8 NW 4,5 1024,9 92 -
02:10 -0,9 -2,1 20,4 NNW 7,9 1024,9 92 -
02:15 -1,0 -2,1 16,7 NW 5,3 1024,9 92 -
02:20 -1,0 -2,0 18,5 NNW 5,8 1025,3 93 -
02:25 -0,9 -1,9 11,1 NW 4,2 1025,3 93 -
02:30 -0,9 -1,9 3,2 NW 22,5 1025,3 93 -
02:35 -0,9 -2,1 18,5 NNW 3,2 1024,9 92 -
02:40 -0,9 -2,0 13,0 NNW 3,4 1025,3 92 -
02:45 -0,8 -1,9 11,1 NNW 4,3 1025,6 92 -
02:50 -0,7 -1,8 6,4 NW 3,7 1025,6 92 -
02:55 -0,8 -1,9 14,8 NW 3,7 1025,6 92 -
03:00 -0,8 -1,9 4,8 NW 22,5 1025,3 92 -
03:05 -0,9 -2,0 12,9 NW 4,0 1026,0 92 -
03:10 -0,9 -2,1 20,9 NW 5,1 1026,3 92 -
03:15 -1,1 -2,3 16,1 North 5,5 1025,6 91 -
03:20 -1,1 -2,3 18,5 NNW 5,0 1026,0 91 -
03:25 -1,1 -2,3 5,6 NW 2,7 1026,6 91 -
03:30 -1,1 -2,3 3,2 NW 29,0 1026,6 91 -
03:35 -1,1 -2,3 20,9 NW 9,3 1026,3 91 -
03:40 -1,1 -2,6 14,8 NNW 7,4 1025,6 90 -
03:45 -1,2 -2,7 8,0 NNW 3,7 1026,3 89 -
03:50 -1,1 -2,5 11,3 NNW 2,9 1026,6 90 -
03:55 -1,1 -2,6 14,8 NW 6,1 1026,6 89 -
04:00 -1,1 -3,3 3,2 NW 22,5 1026,6 85 -
04:05 -1,1 -3,3 27,8 NW 8,7 1026,6 85 -
04:10 -1,1 -3,3 11,1 NW 5,0 1027,0 85 -
04:15 -1,1 -3,2 16,1 WNW 3,5 1027,3 86 -
04:20 -1,2 -3,1 13,0 WNW 7,7 1027,3 87 -
04:25 -1,2 -3,1 6,4 NW 2,6 1027,0 87 -
04:30 -1,3 -3,2 4,8 NW 27,4 1027,0 87 -
04:35 -1,5 -3,4 13,0 NW 5,6 1027,7 87 -
04:40 -1,6 -3,5 9,7 NW 3,7 1027,3 87 -
04:45 -1,7 -3,6 17,7 NW 3,9 1027,7 87 -
04:50 -1,8 -3,6 11,3 NW 5,0 1027,7 88 -
04:55 -1,9 -3,8 11,1 NW 3,4 1027,7 87 -
05:00 -2,0 -3,7 4,8 NW 17,7 1027,7 88 -
05:05 -2,1 -3,9 11,3 NW 2,6 1027,7 87 -
05:10 -2,1 -4,1 13,0 NW 6,8 1028,0 86 -
05:15 -2,1 -4,3 7,4 NW 4,7 1028,0 85 -
05:20 -2,1 -4,3 7,4 NW 2,3 1028,3 85 -
05:25 -2,2 -4,3 11,3 NW 5,6 1028,3 85 -
05:30 -2,2 -4,5 3,2 NW 20,9 1028,7 84 -
05:35 -2,2 -5,0 8,0 NW 2,7 1028,7 81 -
05:40 -2,1 -5,6 5,6 NW 3,4 1028,7 77 -
05:45 -2,1 -6,3 18,5 NW 9,0 1028,7 73 -
05:50 -2,1 -6,3 12,9 NW 3,4 1028,7 73 -
05:55 -2,2 -6,6 7,4 NW 3,1 1028,7 72 -
06:00 -2,2 -6,1 1,6 NW 20,9 1028,7 75 -
06:05 -2,4 -5,7 14,5 NW 2,9 1028,7 78 -
06:10 -2,5 -5,8 18,5 NNW 6,8 1028,7 78 -
06:15 -2,5 -5,8 13,0 NNW 4,3 1029,0 78 -
06:20 -2,6 -5,9 9,3 NNW 2,1 1028,7 78 -
06:25 -2,6 -6,1 3,7 NW 1,6 1029,0 77 -
06:30 -2,5 -6,5 3,2 NW 19,3 1029,0 74 -
06:35 -2,6 -6,4 16,7 NW 6,1 1029,0 75 -

Download your copy of this data-set  here

Our weather-data as stored at Weather Underground. Script developed by Jim McMurry. Adapted for the template by Leuven-Template.eu

You find our weather info also at:

Weather Underground

AWEKAS

Citizen Weather Observer Program (CWOP)

HAMweather, WeatherForYou, PWS Weather

Equipment we use:

Weather-station
Davis VP2

Weather-program
Weather Display

Weather-server
HP ProDesk 600 G1

Provider
1&1 IONOS

Davis VP2

Weather Display

HP ProDesk 600 G1

1&1 IONOS